Temp
4 4 3 5 7 5 4 5 5 7 6 6 7 6 7 8 8 8 8 8 7 7 6 6 6 5 2 2 2 3 3 3 2 2 2 2 1 1 1 1 1 0 -0 -1
3 3 4 5 5 4 4 4 5 6 6 5 7 7 7 7 8 8 7 8 8 7 6 6 6 6 4 2 2 3 3 3 2 2 2 2 1 1 1 1 0 0 -0 -1
4 4 4 5 4 3 4 4 5 5 5 5 5 6 7 7 7 7 7 8 8 7 7 6 6 6 6 3 3 3 3 2 2 2 1 1 1 1 1 1 1 0 -0 -0
2 2 3 4 3 4 4 5 4 5 3 4 5 6 5 7 7 7 7 8 8 8 7 6 7 6 6 6 5 4 3 3 2 2 2 1 2 1 1 1 1 1 0 -1
3 3 3 3 3 4 4 3 4 4 3 3 3 4 5 6 7 8 7 8 8 8 7 6 6 6 6 6 6 5 5 5 3 2 1 1 1 1 2 1 -0 -1 -1 -2
1 2 2 3 4 3 3 3 3 3 3 3 3 4 5 6 7 7 7 8 8 8 7 7 6 6 6 6 6 6 6 5 5 3 1 1 1 1 0 0 -0 0 0 -0
0 1 1 2 3 3 3 2 3 3 2 4 5 4 6 7 7 7 8 8 8 8 7 7 7 6 6 6 6 6 5 5 5 5 4 3 2 1 0 -0 -0 -1 -0 -0
1 1 2 2 2 3 4 3 3 4 4 5 4 4 6 7 7 7 8 8 8 8 8 7 7 6 6 6 6 6 6 5 5 5 5 4 4 3 2 1 1 1 2 2
-0 1 2 2 2 3 3 2 3 4 3 3 4 5 6 7 7 7 7 8 8 8 8 8 7 7 6 6 6 6 6 6 5 5 5 4 4 4 4 3 3 3 2 2
-2 -1 2 2 2 2 2 3 3 2 3 4 4 4 6 7 7 7 7 8 8 8 8 8 7 7 7 6 6 6 6 6 5 5 5 5 4 4 4 4 4 3 3 3
-3 -3 0 2 2 2 2 2 3 3 4 5 5 5 6 6 7 7 8 8 8 8 8 8 8 7 7 7 6 6 6 6 5 5 5 5 4 4 4 4 4 4 3 3
-3 -3 -3 -0 2 2 1 2 3 2 3 3 4 5 6 7 7 7 8 8 8 8 8 8 8 7 7 7 7 6 6 5 5 5 4 4 4 4 4 4 3 3 3 2
-4 -4 -3 -0 1 1 1 1 1 2 2 3 3 4 5 6 6 7 7 7 8 8 8 8 7 7 7 7 7 6 6 5 5 5 5 4 4 4 3 3 3 3 2 2
-5 -5 -4 -2 -2 -1 -1 0 -0 -1 -1 2 2 3 4 5 6 6 7 7 7 8 8 8 7 7 7 7 7 6 6 6 5 5 5 5 4 4 4 4 3 3 2 2
-5 -5 -5 -5 -3 -1 -1 -1 1 1 1 0 3 3 4 4 5 6 6 7 7 7 7 7 7 7 7 7 7 6 6 6 6 5 5 5 5 4 4 3 3 3 3 3
-6 -5 -5 -5 -4 -3 -1 1 -0 1 1 1 1 2 4 5 5 6 6 6 7 6 7 7 7 7 7 7 7 6 6 6 6 5 5 5 5 5 4 4 4 3 3 3
-7 -6 -5 -4 -3 -3 -3 0 -0 1 2 2 2 3 4 4 5 5 6 6 6 6 6 7 7 7 7 7 7 6 6 6 6 6 5 5 5 5 4 4 3 3 3 2
-6 -7 -7 -6 -4 -3 -0 0 -0 0 2 2 3 3 3 4 5 5 6 6 7 7 7 7 7 7 7 7 7 7 6 6 6 6 5 5 5 4 4 4 3 3 2 2
-5 -6 -7 -5 -4 -2 -0 0 0 -1 2 2 2 3 4 4 5 5 5 5 6 7 7 7 7 7 7 7 7 6 6 6 6 6 6 5 5 4 4 3 3 2 2 2
-5 -5 -7 -5 -5 -3 -0 -0 0 -0 -1 1 2 2 3 4 4 5 5 5 6 6 7 7 7 7 7 7 6 6 6 6 6 5 5 5 4 4 3 3 2 2 1 1
-5 -7 -7 -7 -5 -3 -1 -1 -0 -0 -1 -1 -0 1 3 3 4 4 5 4 6 6 7 7 7 7 7 6 6 6 6 5 5 4 4 4 3 3 3 2 2 1 1 1
-5 -6 -7 -6 -5 -5 -3 -2 -2 -2 -2 -2 -1 0 1 3 2 3 3 4 5 5 6 6 6 6 6 6 5 5 5 4 4 4 4 3 3 2 2 2 1 1 1 1
-6 -4 -4 -4 -5 -4 -4 -3 -2 -2 -3 -2 -1 -1 1 2 2 3 3 3 3 3 5 4 5 5 5 4 3 4 4 4 3 3 3 2 2 2 1 1 1 1 0 -0
-4 -4 -5 -5 -4 -4 -3 -3 -3 -3 -1 -2 -1 -1 1 1 2 2 1 1 2 2 3 4 4 4 4 4 3 3 3 3 3 2 2 1 1 1 1 0 -0 -1 -1 -2
-5 -5 -4 -4 -3 -3 -3 -3 -2 -1 -1 -1 -1 -1 -1 0 1 1 1 0 0 -0 0 1 2 3 3 3 2 2 2 2 2 1 1 0 0 -0 -1 -1 -2 -2 -3 -5
-5 -5 -5 -4 -3 -3 -2 -2 -3 -2 -1 -1 -1 -1 -1 -0 0 0 0 0 0 -1 0 1 2 1 1 1 1 0 1 1 0 0 -1 -1 -2 -2 -3 -3 -4 -5 -5 -6
Height
3068 3066 3059 3071 3074 3074 3078 3078 3078 3079 3081 3079 3080 3080 3079 3080 3079 3078 3077 3075 3075 3075 3073 3069 3063 3058 3053 3056 3060 3061 3061 3062 3064 3065 3067 3070 3076 3082 3086 3092 3100 3105 3110 3120
3062 3053 3060 3070 3069 3070 3072 3073 3073 3075 3077 3075 3074 3074 3075 3075 3075 3074 3074 3073 3072 3073 3071 3069 3065 3060 3054 3055 3058 3061 3062 3063 3065 3067 3070 3074 3078 3082 3088 3094 3099 3104 3109 3114
3054 3055 3058 3060 3061 3063 3065 3068 3069 3070 3074 3072 3070 3067 3070 3071 3070 3070 3069 3070 3068 3070 3069 3068 3065 3062 3059 3056 3056 3059 3062 3064 3065 3067 3072 3075 3078 3083 3089 3094 3099 3102 3107 3111
3049 3051 3055 3055 3055 3060 3059 3064 3066 3067 3071 3070 3067 3061 3063 3065 3065 3064 3064 3064 3064 3066 3067 3067 3065 3063 3061 3059 3058 3057 3059 3062 3064 3068 3071 3074 3079 3082 3088 3093 3096 3101 3104 3109
3041 3044 3048 3049 3050 3056 3054 3059 3062 3063 3065 3066 3063 3064 3054 3058 3058 3058 3058 3059 3061 3063 3064 3065 3064 3064 3062 3060 3060 3059 3058 3058 3061 3065 3068 3070 3076 3082 3086 3089 3092 3097 3101 3105
3037 3042 3044 3045 3047 3050 3056 3056 3059 3058 3061 3058 3057 3061 3048 3052 3054 3053 3053 3055 3057 3058 3061 3062 3062 3062 3062 3061 3061 3061 3061 3061 3060 3061 3065 3069 3073 3078 3082 3086 3089 3094 3096 3100
3033 3034 3038 3040 3044 3046 3050 3054 3055 3055 3055 3047 3051 3052 3046 3048 3050 3050 3050 3051 3052 3053 3056 3059 3060 3060 3061 3062 3062 3062 3063 3063 3064 3064 3066 3068 3071 3075 3079 3082 3086 3091 3094 3097
3027 3028 3031 3033 3036 3042 3043 3046 3046 3046 3045 3043 3046 3042 3042 3043 3046 3046 3046 3047 3049 3050 3053 3056 3058 3059 3060 3061 3062 3063 3064 3064 3065 3067 3069 3070 3072 3075 3077 3080 3085 3088 3091 3095
3025 3024 3024 3026 3031 3036 3039 3039 3043 3044 3042 3044 3039 3037 3037 3039 3041 3042 3043 3043 3045 3047 3050 3053 3055 3056 3058 3060 3061 3062 3064 3065 3066 3068 3071 3072 3074 3076 3077 3080 3082 3086 3089 3093
3024 3024 3023 3025 3027 3030 3033 3039 3041 3041 3039 3036 3031 3033 3034 3034 3037 3039 3040 3039 3040 3042 3046 3050 3052 3054 3056 3058 3060 3061 3063 3064 3066 3068 3070 3072 3075 3077 3078 3081 3084 3086 3089 3091
3023 3022 3020 3021 3024 3027 3029 3030 3034 3034 3032 3027 3026 3025 3029 3031 3033 3033 3035 3036 3037 3039 3043 3046 3049 3051 3053 3055 3057 3059 3060 3062 3064 3066 3069 3071 3073 3076 3078 3081 3083 3085 3087 3088
3020 3019 3017 3017 3020 3022 3023 3026 3028 3028 3025 3026 3024 3019 3026 3028 3029 3031 3033 3034 3036 3038 3040 3042 3046 3048 3049 3051 3053 3055 3056 3058 3060 3062 3064 3066 3069 3071 3074 3077 3080 3082 3084 3085
3016 3016 3015 3012 3016 3016 3017 3021 3022 3023 3024 3015 3022 3017 3019 3024 3027 3029 3031 3032 3034 3036 3038 3039 3043 3046 3047 3048 3049 3051 3051 3053 3054 3056 3059 3061 3062 3065 3069 3072 3074 3076 3079 3080
3014 3011 3013 3014 3014 3014 3013 3014 3017 3019 3016 3013 3005 3015 3019 3021 3023 3025 3028 3029 3031 3033 3035 3037 3038 3042 3044 3045 3046 3047 3048 3049 3050 3052 3054 3056 3058 3061 3063 3065 3066 3068 3070 3070
3010 3006 3007 3008 3010 3011 3009 3008 3008 3008 3004 3007 3004 3006 3011 3015 3017 3019 3023 3025 3027 3028 3031 3033 3035 3037 3039 3041 3042 3044 3045 3046 3048 3049 3050 3052 3053 3055 3057 3058 3059 3060 3060 3061
3003 3003 3002 3001 3003 3003 3001 2999 3001 2997 2998 2996 2999 2999 3006 3009 3010 3012 3015 3019 3021 3023 3026 3028 3030 3031 3035 3037 3039 3040 3041 3043 3044 3045 3047 3048 3049 3051 3052 3053 3053 3053 3054 3053
2999 2999 3000 2996 2997 2998 2997 2993 2993 2988 2988 2990 2990 2992 3000 3002 3004 3007 3009 3010 3012 3016 3019 3022 3025 3027 3029 3032 3034 3035 3035 3037 3039 3040 3041 3042 3043 3044 3044 3045 3046 3046 3046 3045
2994 2996 2997 2994 2994 2991 2980 2985 2987 2980 2978 2983 2985 2989 2992 2995 2997 2998 3001 3003 3006 3009 3011 3014 3017 3019 3021 3024 3027 3029 3031 3032 3033 3034 3035 3036 3036 3037 3037 3037 3038 3038 3038 3037
2987 2991 2992 2992 2989 2981 2975 2978 2979 2977 2971 2976 2977 2982 2985 2989 2990 2990 2994 2996 2998 3001 3003 3005 3008 3010 3015 3017 3019 3022 3024 3026 3027 3028 3028 3028 3028 3029 3029 3029 3029 3029 3028 3027
2982 2984 2988 2989 2985 2977 2972 2974 2974 2978 2972 2970 2972 2972 2974 2979 2979 2979 2987 2988 2989 2992 2995 2997 2999 3002 3007 3010 3012 3015 3017 3019 3019 3019 3019 3019 3019 3020 3020 3020 3020 3019 3018 3017
2976 2978 2979 2982 2981 2974 2971 2971 2969 2973 2974 2966 2966 2964 2963 2967 2970 2974 2978 2981 2982 2983 2986 2990 2992 2995 2999 3002 3005 3008 3010 3011 3012 3012 3012 3012 3012 3012 3012 3011 3010 3010 3009 3007
2975 2975 2975 2978 2978 2975 2968 2970 2968 2968 2961 2963 2963 2961 2960 2962 2964 2966 2969 2973 2975 2977 2979 2984 2986 2989 2992 2996 2999 3001 3002 3004 3005 3004 3004 3005 3004 3004 3003 3002 3001 3000 2999 2997
2970 2969 2970 2966 2963 2964 2961 2966 2965 2964 2960 2959 2959 2957 2957 2959 2960 2961 2962 2967 2971 2975 2976 2979 2982 2984 2986 2990 2996 2997 2998 2999 2999 2999 2999 2998 2996 2996 2995 2994 2992 2991 2989 2987
2963 2964 2964 2965 2963 2963 2960 2962 2961 2960 2959 2958 2956 2954 2954 2955 2956 2956 2958 2964 2968 2972 2976 2978 2980 2981 2983 2986 2987 2990 2991 2992 2993 2993 2993 2992 2991 2989 2988 2987 2985 2982 2980 2979
2962 2960 2958 2956 2957 2959 2960 2959 2956 2956 2956 2957 2954 2954 2953 2953 2954 2954 2956 2958 2963 2967 2971 2974 2977 2977 2977 2979 2982 2983 2984 2986 2986 2987 2986 2986 2984 2982 2981 2979 2977 2974 2972 2971
2955 2955 2956 2952 2954 2954 2952 2955 2954 2953 2953 2953 2953 2951 2950 2950 2950 2952 2953 2956 2959 2963 2967 2969 2969 2971 2973 2975 2977 2977 2979 2980 2980 2980 2979 2979 2977 2975 2973 2971 2969 2967 2965 2963
Wind_Speed
32 37 43 35 33 34 19 20 20 17 12 18 21 20 18 15 15 13 15 15 12 10 13 16 19 23 8 12 15 9 11 9 8 9 13 27 33 30 27 37 42 42 47 45
26 42 40 32 35 32 31 29 33 29 25 20 20 22 17 16 18 15 15 14 12 14 9 12 14 16 2 14 14 14 14 14 13 17 17 19 24 34 36 37 37 36 41 47
32 28 19 32 36 32 31 32 34 33 26 28 24 25 17 15 13 17 18 18 16 13 8 8 10 10 8 5 15 13 23 15 16 15 17 23 25 34 28 33 37 40 39 35
23 27 22 18 27 34 36 35 33 31 23 15 11 11 22 24 22 16 15 15 12 12 9 6 6 7 6 7 7 13 18 19 21 19 16 15 22 33 17 26 32 33 41 40
26 21 17 32 31 20 28 26 26 23 23 24 17 10 15 10 23 14 15 14 9 12 11 7 4 1 3 6 7 8 11 11 19 23 16 16 22 15 22 25 28 33 32 45
30 26 17 16 16 29 12 12 13 12 14 11 19 14 14 13 10 10 2 9 13 15 14 12 6 3 2 4 6 7 8 9 10 11 14 22 23 23 21 23 30 23 24 24
29 29 23 24 16 14 29 13 3 4 6 7 12 14 24 14 21 15 13 10 11 18 17 14 8 5 4 3 4 5 7 8 9 11 12 14 17 21 19 19 22 25 26 29
8 7 33 29 30 19 20 30 11 6 5 4 11 9 13 9 11 9 7 9 11 17 20 16 12 9 8 6 4 4 5 6 7 8 9 11 12 14 15 17 20 19 18 20
3 6 7 20 36 31 20 22 24 20 14 5 7 8 8 10 21 18 13 14 14 17 20 18 16 11 8 6 6 6 6 6 7 7 7 8 9 11 12 14 15 16 17 20
5 7 11 7 10 22 29 16 10 15 6 10 7 10 10 2 6 8 11 10 15 20 19 20 20 16 11 11 10 9 10 11 11 12 12 10 9 9 10 12 14 15 17 19
12 5 7 11 9 14 17 30 21 11 18 7 7 7 13 12 6 12 9 8 11 20 17 16 17 16 15 14 15 15 14 13 16 18 17 16 16 15 16 16 16 17 20 21
14 8 8 18 22 11 8 12 28 24 12 9 17 21 9 9 5 14 11 11 11 10 14 14 15 17 14 12 15 14 13 15 17 15 19 22 21 20 22 22 22 24 25 25
9 5 4 5 8 13 16 14 15 19 26 32 14 8 13 23 16 14 9 10 14 13 15 18 13 11 13 12 9 13 11 13 15 16 19 21 22 22 29 24 25 28 28 29
17 14 13 10 7 17 20 17 15 16 18 22 37 28 17 26 25 20 15 12 13 15 16 21 16 11 11 11 8 8 7 11 12 13 13 15 18 23 18 21 25 30 30 31
14 16 17 18 20 24 29 27 24 28 36 25 27 27 24 28 32 24 19 15 15 13 14 20 19 15 13 11 11 13 8 7 7 7 7 6 11 14 19 24 26 25 26 28
12 11 14 18 18 18 28 30 32 39 38 37 32 37 29 16 17 26 27 25 22 32 16 22 21 21 18 16 14 15 16 12 12 11 11 13 14 17 18 19 23 25 28 30
16 12 8 6 4 11 19 33 24 34 42 37 30 32 27 26 24 24 24 26 26 22 26 22 22 22 25 23 19 18 21 20 19 19 21 21 21 23 26 26 26 25 26 28
23 18 15 10 10 8 16 16 17 15 30 42 39 30 21 23 18 21 29 32 28 26 28 29 29 26 25 25 26 21 23 24 24 23 25 27 28 28 28 31 29 29 28 30
27 25 14 8 11 21 24 9 10 18 21 25 37 37 34 30 29 28 24 21 28 28 27 26 28 30 29 27 25 24 26 26 27 26 28 31 30 30 31 32 30 31 31 31
20 31 25 13 6 6 9 9 16 24 26 8 12 20 28 32 39 43 26 22 22 30 29 31 29 25 29 29 27 26 27 25 24 27 27 27 27 28 29 31 30 30 30 31
4 18 28 27 15 12 15 15 14 13 12 8 6 8 18 23 30 32 36 26 22 24 30 29 26 29 30 32 29 26 23 23 21 19 17 18 20 24 27 28 29 30 31 33
8 8 16 20 15 14 6 7 8 16 16 9 5 5 4 20 18 16 19 26 24 15 18 24 26 28 29 27 24 20 19 16 17 16 16 18 20 22 24 26 27 28 29 30
18 23 13 8 17 15 5 14 10 10 21 12 11 4 3 10 15 23 20 24 10 11 19 23 22 23 24 20 17 16 17 18 16 15 16 18 21 22 23 25 26 28 29 30
23 20 25 21 13 9 2 20 11 9 12 15 16 14 16 10 11 21 28 23 14 13 20 17 17 18 23 24 17 19 18 18 16 16 19 20 20 21 23 25 26 28 29 29
16 15 18 23 24 26 24 11 6 3 9 12 15 15 17 14 13 10 21 27 31 20 18 20 21 24 20 18 21 19 16 17 17 18 19 20 21 24 25 26 26 27 26 25
24 23 25 27 21 24 24 18 18 14 9 8 9 15 19 19 20 16 11 15 18 24 24 25 20 19 20 21 21 14 14 15 17 18 19 21 23 23 23 22 22 21 21 21
Wind_Direction
240 233 228 235 244 245 251 251 258 260 269 268 253 274 275 275 273 285 302 297 289 294 317 333 339 338 287 203 201 192 189 202 218 164 172 197 208 212 213 193 193 194 190 187
239 240 244 249 250 250 250 253 259 266 268 277 266 271 279 281 268 273 287 300 293 279 306 328 346 354 343 192 202 214 214 201 172 196 191 174 183 191 195 189 196 192 192 199
246 255 258 241 242 243 247 251 260 263 272 281 278 277 275 269 264 274 278 287 283 270 280 317 342 10 33 199 212 222 212 202 195 193 191 202 210 194 193 204 209 202 207 208
255 249 241 246 242 245 253 258 259 265 271 273 271 287 271 269 276 276 284 280 271 239 242 279 331 6 49 86 136 201 216 218 217 209 195 212 220 212 224 207 210 214 214 217
235 252 244 239 242 247 254 258 258 261 264 268 264 271 276 283 289 295 290 237 252 236 218 234 252 342 48 99 95 114 130 155 205 222 225 211 190 207 229 212 211 217 223 225
241 243 247 256 249 240 239 235 246 251 247 248 243 239 277 272 285 299 135 226 247 228 216 226 228 226 96 99 120 109 97 98 115 147 203 208 207 223 220 211 215 229 239 238
230 230 232 241 238 234 226 230 258 221 205 243 238 225 250 260 286 288 248 225 232 215 213 219 196 189 179 143 125 131 123 117 113 120 134 156 175 193 196 203 218 222 227 222
227 243 233 233 231 222 223 221 199 220 221 242 211 222 246 255 267 280 237 236 218 212 216 211 182 175 177 175 173 151 159 147 132 127 135 149 156 164 180 194 208 211 208 207
275 244 230 233 234 229 222 218 232 248 264 281 225 237 213 230 288 281 271 247 228 211 217 221 204 185 189 183 176 192 200 192 172 167 170 165 168 173 176 181 190 197 198 209
336 273 247 254 240 232 228 238 194 209 236 243 211 235 221 151 296 263 286 242 229 203 207 219 214 204 201 214 216 211 213 216 211 204 202 200 199 200 205 205 205 206 210 213
326 294 234 234 230 241 230 232 231 244 233 250 260 238 228 262 276 279 232 222 211 201 211 221 213 211 210 219 230 238 235 230 224 223 219 217 220 222 226 227 227 228 229 229
285 295 279 251 236 227 256 241 235 232 233 244 250 245 245 220 274 320 229 203 187 188 197 200 201 208 212 219 230 237 237 240 238 231 229 230 231 240 244 242 241 242 245 247
318 262 309 289 232 233 242 237 244 254 246 246 247 246 222 227 258 253 304 240 214 213 199 197 194 210 218 219 218 223 241 239 227 226 232 231 225 237 241 256 248 250 251 252
295 270 240 243 259 292 288 250 259 275 267 254 246 252 248 252 265 266 266 255 237 212 217 203 209 215 218 218 224 229 212 206 204 205 216 229 234 234 237 242 257 262 254 253
262 263 268 261 267 258 271 280 274 256 249 253 256 254 259 248 245 246 263 245 232 225 233 216 226 231 228 230 236 234 216 199 198 206 221 232 224 230 246 250 252 252 251 254
229 263 272 274 270 267 263 269 284 267 259 256 267 257 258 248 249 243 249 247 250 245 240 238 234 235 240 242 241 241 234 228 229 235 236 235 238 242 248 250 246 248 251 255
259 259 298 261 235 237 254 254 293 273 250 250 249 252 240 245 253 250 245 245 247 241 241 237 233 235 238 233 235 237 235 234 235 242 246 244 244 248 249 247 250 255 260 260
248 259 264 288 291 226 239 220 289 295 258 250 250 247 248 235 234 233 238 247 245 239 235 231 236 241 236 237 231 234 231 233 241 246 250 253 251 252 254 254 257 261 266 263
242 245 240 239 272 278 269 263 277 342 263 255 257 256 256 250 245 244 242 242 231 232 235 238 239 233 231 236 227 230 236 240 241 246 256 255 254 256 257 259 265 268 267 269
237 242 235 244 238 249 268 253 297 320 296 269 253 252 249 248 245 244 234 244 239 237 238 245 241 227 223 221 226 234 241 246 254 264 269 269 265 260 259 265 270 275 276 279
259 221 221 235 252 282 295 270 270 290 260 339 352 326 249 237 244 247 239 255 230 219 237 227 217 216 217 221 229 234 242 254 263 266 266 264 264 261 263 267 270 272 273 273
255 208 218 230 244 247 301 338 4 333 275 324 4 352 303 220 230 222 223 219 224 233 219 221 214 217 218 221 226 232 243 246 249 257 266 270 270 269 269 271 273 274 274 275
252 240 246 229 237 254 336 299 336 334 311 344 308 293 226 221 213 220 191 199 202 231 206 193 200 209 219 226 241 253 256 250 254 259 266 270 268 270 272 274 274 275 275 275
247 248 269 271 280 231 240 321 315 346 319 331 324 281 232 203 225 236 210 214 212 225 206 213 224 232 233 220 216 237 236 247 248 267 273 270 273 276 278 278 279 279 279 279
258 274 270 269 269 266 275 277 317 293 323 308 328 314 284 248 217 229 220 219 222 217 224 227 221 220 210 220 231 226 228 242 264 273 274 282 289 290 289 287 286 285 285 285
260 264 265 269 278 271 261 281 320 330 314 300 307 309 281 260 244 207 174 207 214 213 212 210 225 231 231 224 226 221 237 255 268 281 288 293 294 294 292 291 290 289 290 290